User: anonymous   Login
Location: Theydon Bois
(51.6750°N, 0.1050°E)
Time: 02:54:15
(UTC+01:00)
Language:

Iridium 4 Rocket - Orbit

View from above orbital plane
View from above orbital plane
View from above satellite
View from above satellite

Ground track
Ground track

The orbit data is extracted from the following two-line orbital elements,

1 24797U 97020F   18199.58895236 +.00000084 +00000-0 +11612-4 0  9998
2 24797 086.8964 208.1831 0227535 075.8103 042.9044 14.44065950115113
Epoch (UTC): 18 July 2018 14:08:05
Eccentricity: 0.0227535
inclination: 86.8964°
perigee height: 583 km
apogee height: 907 km
right ascension of ascending node: 208.1831°
argument of perigee: 75.8103°
revolutions per day: 14.44065950
mean anomaly at epoch: 42.9044°
orbit number at epoch: 11511

The dashed part of the orbit path shows where the satellite is in the earth's shadow,  

DLR